Location: Chippewa Lake
(41.0698°N, 81.9010°W)
Time: 11:42:49
(UTC+00:00)

Envisat - Pass Details

Date: 06 June 2023
Orbit: 763 x 764 km, 98.2° (Epoch: 21 September)

Event Time Altitude Azimuth Distance (km) Brightness Sun altitude
Rises 08:55:43 0° 18° (NNE) 3,237 7.4 -9.9°
Reaches altitude 10° 08:58:06 10° 24° (NNE) 2,307 6.7 -9.6°
Maximum altitude 09:03:02 50° 99° (E) 964 3.8 -8.9°
Drops below altitude 10° 09:07:56 10° 175° (S) 2,292 5.1 -8.2°
Sets 09:10:18 0° 181° (S) 3,214 5.8 -7.8°
